Location: Potomac
(46.8816°N, 113.5795°W)
Time: 11:57:20
(UTC+00:00)

AO-91 - Pass Details

Date: 04 July 2022
Orbit: 450 x 797 km, 97.7° (Epoch: 09 August)

Event Time Altitude Azimuth Distance (km) Brightness Sun altitude
Rises 06:39:36 0° 10° (N) 2,505 ? -19.0°
Reaches altitude 10° 06:41:41 10° 7° (N) 1,606 ? -19.1°
Maximum altitude 06:45:02 63° 286° (WNW) 510 ? -19.2°
Enters shadow 06:45:44 48° 231° (SW) 600 ? -19.2°
